Location: Laguna de la Cañada del Gallo
(40.3974°N, 5.2096°W)
Time: 06:11:53
(UTC+00:00)

CSL-04 Debris - Visible Passes

Search period start: 16 July 2024 00:00
Search period end: 26 July 2024 00:00
Orbit: 822 x 844 km, 98.8° (Epoch: 15 July)

Date Brightness Start Highest point End Pass type
(mag) Time Alt. Az. Time Alt. Az. Time Alt. Az.
16 Jul 6.7 21:51:54 10° WSW 21:54:07 13° W 21:56:22 10° WNW visible
17 Jul 6.5 21:33:18 10° SW 21:36:57 18° W 21:40:38 10° NW visible
18 Jul 6.0 21:15:23 10° SSW 21:19:50 26° W 21:24:19 10° NW visible
19 Jul 5.5 20:57:48 10° SSW 21:02:44 37° W 21:07:44 10° NNW visible
20 Jul 4.9 20:40:29 10° S 20:45:42 54° W 20:50:59 10° NNW visible
21 Jul 4.3 20:23:21 10° S 20:28:42 77° WSW 20:34:06 10° NNW visible
22 Jul 6.7 21:50:13 10° WSW 21:52:37 13° W 21:55:04 10° WNW visible
23 Jul 6.5 21:31:42 10° SW 21:35:27 19° W 21:39:13 10° NW visible
24 Jul 6.0 21:13:48 10° SSW 21:18:19 27° W 21:22:52 10° NW visible
25 Jul 5.4 20:56:15 10° SSW 21:01:13 39° W 21:06:15 10° NNW visible
